Regional Weather Roundup
Issued by NWS

Home | Current Version | Previous Version | Graphics & Text | Print | Product List | Glossary On
Versions: 1 2 3 4 5 6 7 8 9 10 11 12 13 14 15 16 17 18 19 20 21 22 23 24 25 26 27 28 29 30 31 32 33 34 35 36 37 38 39 40 41 42 43 44 45 46 47 48 49 50
000
ASUS43 KBIS 280310
RWRND

NORTH DAKOTA REGIONAL WEATHER ROUNDUP
NATIONAL WEATHER SERVICE BISMARCK ND
1000 PM CDT THU AUG 27 2015

NOTE: "FAIR" INDICATES FEW OR NO CLOUDS BELOW 12,000 FEET WITH NO
SIGNIFICANT WEATHER AND/OR OBSTRUCTIONS TO VISIBILITY.


NDZ001>003-009>011-017-280400-
NORTHWEST NORTH DAKOTA

CITY           SKY/WX    TMP DP  RH WIND       PRES   REMARKS
WILLISTON      PTCLDY    74  65  73 CALM      29.88S
MINOT          FAIR      70  63  78 SE3       29.87R
MINOT AFB      CLEAR     67  67 100 S7        29.85S
$$

NDZ018>021-031>035-040>046-280400-
SOUTHWEST NORTH DAKOTA

CITY           SKY/WX    TMP DP  RH WIND       PRES   REMARKS
BISMARCK       PTCLDY    69  61  75 S6        29.92R
DICKINSON      MOCLDY    69  57  65 S9        29.92R
GARRISON         N/A     67  62  84 S3        29.89S
HETTINGER ARPT PTCLDY    69  56  62 S5        29.97R
$$

NDZ004>008-012>016-024-026-027-054-280400-
NORTHEAST NORTH DAKOTA

CITY           SKY/WX    TMP DP  RH WIND       PRES   REMARKS
GRAND FORKS    PTCLDY    67  63  87 S5        29.88F
GRND FRKS AFB  CLEAR     65  63  93 S7        29.89F
DEVILS LAKE    CLEAR     70  63  78 CALM      29.88R
$$

NDZ022-023-025-028>030-036>039-047>053-280400-
SOUTHEAST NORTH DAKOTA

CITY           SKY/WX    TMP DP  RH WIND       PRES   REMARKS
FARGO          PTCLDY    71  66  84 SE7       29.91R
JAMESTOWN      CLEAR     70  67  90 S6        29.91R
$$




USA.gov is the U.S. government's official web portal to all federal, state and local government web resources and services.